Location: Unspecified
(0.0000°N, 0.0000°E)
Time: 09:46:45
(UTC+02:00)

Iridium 76 - Visible Passes

Search period start: 27 July 2016 00:00
Search period end: 06 August 2016 00:00
Orbit: 776 x 779 km, 86.4° (Epoch: 26 July)

Date Brightness Start Highest point End Pass type
(mag) Time Alt. Az. Time Alt. Az. Time Alt. Az.
27 Jul 6.7 07:15:39 10° SSE 07:20:38 46° E 07:25:35 10° NNE visible
28 Jul 8.1 06:43:21 10° SE 06:47:11 21° E 06:50:59 10° NE visible
30 Jul 5.8 07:15:29 10° S 07:20:42 76° E 07:25:53 10° N visible
31 Jul 7.3 06:42:35 10° SSE 06:47:15 33° E 06:51:52 10° NNE visible
01 Aug 8.4 06:10:53 10° SE 06:13:47 15° E 06:16:41 10° NE visible
02 Aug 5.5 07:15:35 10° S 07:20:46 67° W 07:25:55 10° N visible
03 Aug 6.3 06:42:13 10° SSE 06:47:19 54° E 06:52:22 10° NNE visible
04 Aug 7.7 06:09:41 10° SE 06:13:52 24° E 06:18:00 10° NE visible
05 Aug 8.6 05:39:28 10° E 05:40:24 10° E 05:41:20 10° E visible
05 Aug 5.9 07:15:58 10° SSW 07:20:49 40° W 07:25:41 10° NNW visible
